Powrót do katalogu

NOAA 16 DEB

AktywnySSO
NORAD 42393·DEBRIS·🇺🇸 United States

Wystrzelony Sep 21, 2000 z Vandenberg Space Force Base

Loading…

Następne Przeloty (najbliższe 24 godziny)

TLE

ŚwieżeSource: Space-Track

Epoka: Sep 14, 2026, 03:03 UTC

1 42393U 00055SM  26257.12726689  .00004496  00000-0  17612-2 0  9996
2 42393  98.9201 352.3638 0035424   2.1976 357.9355 14.29621482541966

Śledź NOAA 16 DEB w czasie rzeczywistym z AllMySat

Download on the App Store